Regional Weather Roundup
Issued by NWS

Home | Current Version | Previous Version | Graphics & Text | Print | Product List | Glossary Off
Versions: 1 2 3 4 5 6 7 8 9 10 11 12 13 14 15 16 17 18 19 20 21 22 23 24 25 26 27 28 29 30 31 32 33 34 35 36 37 38 39 40 41 42 43 44 45 46 47 48 49 50

000
ASUS43 KTOP 211859
RWRKS

WEATHER ROUNDUP FOR KANSAS
NATIONAL WEATHER SERVICE GOODLAND KS
100 PM CST SAT JAN 21 2017

NOTE:  "FAIR" INDICATES FEW OR NO CLOUDS BELOW 12,000 FEET WITH NO
SIGNIFICANT WEATHER AND/OR OBSTRUCTIONS TO VISIBILITY.

KSZ001>006-013>018-027>032-041>047-212000-
NORTHWEST KANSAS

CITY           SKY/WX    TMP DP  RH WIND       PRES   REMARKS
GOODLAND       CLOUDY    46  35  65 E9        29.39F
HAYS           SUNNY     50  37  61 SE8       29.43F
HILL CITY      SUNNY     53  37  54 NE3       29.42F
RUSSELL        SUNNY     50  38  63 SE8       29.43F
$$

KSZ061>065-074>080-084>089-212000-
SOUTHWEST KANSAS

CITY           SKY/WX    TMP DP  RH WIND       PRES   REMARKS
DODGE CITY     SUNNY     51  36  56 SE12      29.40F
ELKHART          N/A     50  33  52 SW12        N/A
GARDEN CITY    SUNNY     47  33  58 SE9G20    29.37F
GREAT BEND     SUNNY     53  37  54 SE13      29.43F
LIBERAL        SUNNY     54  41  62 S9        29.36F
$$

KSZ066>073-081>083-090>101-212000-
SOUTHEAST KANSAS

CITY           SKY/WX    TMP DP  RH WIND       PRES   REMARKS
CHANUTE        CLOUDY    54  38  54 S5        29.50F
COFFEYVILLE    CLOUDY    51  40  65 NE3       29.50F
HUTCHINSON     PTSUNNY   51  38  60 S7        29.45F
MEDICINE LODGE   N/A     43  38  82 E6        29.43F
NEWTON         CLOUDY    50  41  71 SE8       29.47F
PARSONS        CLOUDY    51  38  60 SE3       29.51F
WICHITA INTL   CLOUDY    49  38  65 SE7       29.46F
WICHITA JABRA  CLOUDY    50  39  66 SE7       29.46F
WINFIELD       CLOUDY    50  39  66 E7        29.46F
$$

KSZ007>012-019>026-033>040-048>060-102>105-212000-
NORTHEAST KANSAS

CITY           SKY/WX    TMP DP  RH WIND       PRES   REMARKS
CONCORDIA      SUNNY     51  39  63 VRB6      29.46F
EMPORIA        SUNNY     56  39  53 SW10      29.48F
LAWRENCE       SUNNY     52  43  71 S9        29.50F
MANHATTAN      SUNNY     52  41  66 VRB5      29.48F
OLATHE IND     SUNNY     52  41  66 S12       29.50F
OLATHE EXE     SUNNY     51  41  68 SW9       29.50F
SALINA         SUNNY     50  39  66 S3        29.48F
TOPEKA BILLARD SUNNY     52  41  66 S8        29.49F
TOPEKA FORBES  SUNNY     54  41  61 SW10      29.49F
$$



USA.gov is the U.S. government's official web portal to all federal, state and local government web resources and services.